Location: Csohesd
(46.2500°N, 22.6167°E)
Time: 02:31:55
(UTC+00:00)

Cosmos 1758 Rocket - Pass Details

Date: 21 October 2021
Orbit: 602 x 635 km, 82.5° (Epoch: 30 November)

Event Time Altitude Azimuth Distance (km) Brightness Sun altitude
Rises 17:22:54 0° 354° (N) 2,866 7.1 -19.8°
Reaches altitude 10° 17:25:10 10° 359° (N) 1,959 6.2 -20.1°
Enters shadow 17:29:12 54° 65° (ENE) 741 3.6 -20.8°
